Renton, WA

10:48 PM PDT on May 29, 2017 (GMT -0700)
Renton Municipal

Weather History for KRNT - August, 2014

Change the Weather History Date:

Saturday, August 9, 2014

  Actual Average Record
Temperature  
Mean Temperature 70 °F -  
Max Temperature 80 °F 77 °F 91 °F (2004)
Min Temperature 59 °F 57 °F 55 °F (2002)
Cooling Degree Days 4    
Growing Degree Days 20 (Base 50)    
Moisture  
Dew Point 53 °F    
Average Humidity 55    
Maximum Humidity 78    
Minimum Humidity 38    
Precipitation  
Precipitation 0.00 in - - ()
Sea Level Pressure  
Sea Level Pressure 30.13 in    
Wind  
Wind Speed 6 mph (NW)    
Max Wind Speed 13 mph    
Max Gust Speed -    
Visibility 9 miles    
Events      
Averages and records for this station are not official NWS values.
T = Trace of Precipitation, MM = Missing Value Source: NWS Daily Summary

Daily Weather History Graph

Daily Weather History Graph

Search for Another Location

Airport or City:

Trip Planner

Search our weather history database for the weather conditions in past years. The results will help you decide how hot, cold, wet, or windy it might be!

Date:

Astronomy

Aug. 09, 2014 Rise Set
Actual Time 5:57 AM PDT 8:30 PM PDT
Civil Twilight 5:22 AM PDT 9:05 PM PDT
Nautical Twilight 4:38 AM PDT 9:48 PM PDT
Astronomical Twilight 3:47 AM PDT 10:38 PM PDT
Moon 7:33 PM PDT (8/9) 4:44 AM PDT (8/9)
Length of Visible Light 15h 42m
Length of Day
14h 33m
Waxing Gibbous, 99% of the Moon is Illuminated
Aug 9
Waxing Gibbous
Aug 10
Full
Aug 17
Last Quarter
Aug 25
New
Sep 2
First Quarter

Hourly Weather History & Observations

Time (PDT) Temp. Heat Index Dew Point Humidity Pressure Visibility Wind Dir Wind Speed Gust Speed Precip Events Conditions
12:53 AM 64.0 °F - 51.1 °F 63% 30.12 in 10.0 mi NNW 4.6 mph - N/A   Clear
1:53 AM 64.0 °F - 50.0 °F 60% 30.12 in 9.0 mi Variable 4.6 mph - N/A   Clear
2:53 AM 64.0 °F - 50.0 °F 60% 30.12 in 10.0 mi North 5.8 mph - N/A   Clear
3:53 AM 63.0 °F - 48.9 °F 60% 30.13 in 10.0 mi Variable 3.5 mph - N/A   Clear
4:53 AM 62.1 °F - 50.0 °F 65% 30.15 in 8.0 mi Calm Calm - N/A   Clear
5:53 AM 59.0 °F - 51.1 °F 75% 30.15 in 7.0 mi Calm Calm - N/A   Clear
6:53 AM 59.0 °F - 52.0 °F 78% 30.15 in 6.0 mi Calm Calm - N/A   Haze
7:53 AM 63.0 °F - 53.1 °F 70% 30.16 in 7.0 mi Calm Calm - N/A   Clear
8:53 AM 66.0 °F - 51.1 °F 59% 30.17 in 9.0 mi NNW 8.1 mph - N/A   Clear
10:53 AM 71.1 °F - 52.0 °F 51% 30.17 in 9.0 mi NW 11.5 mph - N/A   Clear
11:53 AM 72.0 °F - 53.1 °F 51% 30.17 in 8.0 mi NW 11.5 mph - N/A   Clear
12:53 PM 73.9 °F - 54.0 °F 50% 30.16 in 9.0 mi NW 10.4 mph - N/A   Clear
1:53 PM 75.9 °F - 54.0 °F 46% 30.14 in 8.0 mi NW 10.4 mph - N/A   Clear
2:53 PM 78.1 °F - 54.0 °F 43% 30.13 in 8.0 mi NW 9.2 mph - N/A   Clear
3:53 PM 79.0 °F - 53.1 °F 40% 30.12 in 8.0 mi NW 11.5 mph - N/A   Clear
4:53 PM 80.1 °F - 52.0 °F 38% 30.11 in 9.0 mi NW 12.7 mph - N/A   Clear
5:53 PM 80.1 °F 80.0 °F 54.0 °F 40% 30.10 in 9.0 mi NW 12.7 mph - N/A   Clear
6:53 PM 78.1 °F - 54.0 °F 43% 30.09 in 9.0 mi NW 12.7 mph - N/A   Clear
7:53 PM 75.2 °F - 55.4 °F 50% 30.08 in 9.0 mi NW 11.5 mph - N/A   Clear
8:53 PM 73.0 °F - 57.9 °F 59% 30.11 in 9.0 mi NNW 9.2 mph - N/A   Clear
9:53 PM 71.1 °F - 57.0 °F 61% 30.12 in 9.0 mi NNW 5.8 mph - N/A   Clear
10:53 PM 69.1 °F - 51.1 °F 53% 30.12 in 9.0 mi NW 5.8 mph - N/A   Clear
11:53 PM 66.9 °F - 53.1 °F 61% 30.13 in 9.0 mi NNW 5.8 mph - N/A   Clear